Location: Waco, TX
(31.5480°N, 97.1670°W)
Time: 23:36:33
(UTC-06:00)

ISS - Pass Details

Date: 14 November 2017
Orbit: 402 x 407 km, 51.6° (Epoch: 23 November)

Event Time Altitude Azimuth Distance (km) Brightness Sun altitude
Rises 23:04:00 0° 224° (SW) 2,306 - -69.7°
Reaches altitude 10° 23:06:04 10° 225° (SW) 1,449 - -70.0°
Maximum altitude 23:09:19 87° 313° (NW) 406 - -70.6°
Drops below altitude 10° 23:12:35 10° 44° (NE) 1,454 - -71.1°
Sets 23:14:39 0° 45° (NE) 2,315 - -71.4°
